Temp
17 17 17 18 18 18 18 19 19 19 19 19 20 20 20 20 20 20 20 20 21 21 21 21 21 21 22 22 22 22 22 22 21 18 19 25 27 27 27 27 27 27 26 25 25 25 24 24 23 23 24 24 23 24 23 23 24 24 24 22 22 22 23 24 25 26 25 26 27 27 27 28 28 28 27 27 27 27 26 25 24 23 23 21 20 19 17 17
17 17 18 18 18 18 19 19 19 19 19 19 20 20 20 20 20 20 20 20 20 21 21 21 21 21 22 22 22 22 22 21 19 19 22 27 27 27 27 26 27 27 26 26 25 25 24 25 24 23 25 25 23 24 24 24 24 24 23 22 23 24 25 25 26 26 26 27 27 27 26 26 28 28 27 28 28 26 26 26 24 24 24 22 18 17 17 17
17 17 18 18 18 18 19 19 19 19 19 19 20 20 20 20 20 20 20 20 20 21 21 21 21 21 22 22 22 22 21 19 22 24 27 28 27 27 27 26 27 27 26 26 26 25 25 25 24 25 25 25 24 24 25 24 24 24 23 23 24 25 25 25 25 26 26 26 26 26 26 26 27 28 27 28 28 26 26 27 26 25 26 25 20 17 17 17
17 17 17 18 18 18 19 19 19 19 19 19 20 20 20 20 21 21 21 20 20 21 21 21 21 22 22 22 22 22 20 21 26 28 28 28 28 27 27 27 27 27 26 26 26 25 25 25 24 25 25 25 24 24 25 25 24 24 24 25 26 25 25 25 26 27 27 26 26 26 26 26 27 27 27 28 27 26 26 27 27 27 27 25 20 17 18 17
17 17 17 18 18 18 19 19 19 19 19 20 20 20 20 21 21 21 21 21 21 21 21 21 21 22 22 22 22 21 21 25 28 28 28 28 28 28 27 27 27 27 26 25 25 24 25 24 24 25 25 25 24 24 25 25 25 25 25 26 26 25 25 26 26 27 27 26 25 26 27 27 27 27 27 28 28 28 28 28 27 27 28 25 21 18 17 17
17 17 17 18 18 18 19 19 19 19 20 20 20 20 20 21 21 21 21 21 21 21 21 22 21 22 22 22 21 22 23 26 27 28 28 28 28 28 27 27 27 26 26 25 25 24 25 24 25 26 25 25 25 25 25 25 25 25 26 26 26 26 25 26 27 27 26 26 26 26 26 27 27 28 28 27 28 30 30 29 27 27 26 23 20 18 17 18
17 17 17 18 18 19 19 19 19 20 20 20 20 20 21 21 21 21 21 22 22 22 22 22 22 22 22 21 21 22 23 25 27 28 28 28 28 28 27 27 27 26 25 25 24 24 25 25 25 25 24 25 25 25 25 25 25 25 26 26 26 26 26 27 27 26 26 25 26 26 25 26 27 28 27 27 29 30 29 27 26 26 24 21 19 18 18 18
17 17 17 18 18 19 19 19 20 20 20 21 21 21 21 21 21 21 22 22 22 22 22 22 22 21 21 21 22 23 23 25 27 28 28 28 28 28 28 27 27 26 25 25 25 24 25 25 25 25 25 25 24 24 25 25 25 26 26 26 26 26 26 27 26 25 25 26 26 25 25 27 27 27 26 27 29 29 28 27 26 25 23 21 20 18 17 18
17 17 17 18 18 19 19 19 20 20 21 21 21 21 21 21 22 22 22 23 23 23 23 22 22 21 21 21 21 24 26 27 27 27 28 28 28 28 28 27 26 26 25 24 25 24 25 25 25 25 25 25 24 25 25 25 26 26 27 27 26 26 26 26 26 26 26 26 26 25 27 28 27 26 27 29 29 27 27 27 24 23 23 21 20 19 18 18
17 17 17 18 18 18 19 19 20 20 21 21 21 21 22 22 22 23 23 23 23 23 23 22 21 21 21 21 22 24 27 27 27 27 28 28 28 28 28 27 27 26 24 23 24 24 25 25 25 25 25 25 25 25 25 25 25 26 26 26 26 26 26 25 26 27 26 26 26 26 28 28 26 26 28 29 28 26 27 26 23 23 24 22 20 19 18 18
17 17 17 18 18 18 19 19 20 21 21 21 21 22 22 22 23 23 23 24 23 23 22 22 21 20 20 21 23 25 27 27 27 27 27 27 27 28 28 27 27 26 24 23 23 24 25 25 24 24 25 25 25 25 26 26 26 26 26 26 26 26 25 25 26 26 26 27 27 27 28 28 26 27 29 29 27 27 27 27 23 23 23 21 20 20 19 19
17 17 18 18 18 18 19 19 20 21 21 21 22 22 22 23 23 23 23 23 23 23 22 21 20 20 20 21 23 25 27 27 27 27 27 26 26 27 27 27 27 27 26 23 22 24 25 25 25 25 25 25 25 25 26 26 25 26 26 26 26 26 26 26 27 27 27 27 27 27 27 28 27 28 29 28 27 27 27 27 24 22 22 21 20 19 19 19
17 17 18 18 18 19 19 20 20 20 21 21 22 22 23 23 23 23 23 23 23 22 21 21 20 20 20 22 24 25 26 26 26 26 26 26 26 27 27 26 26 26 26 25 24 25 25 25 26 25 25 25 25 25 26 25 25 26 26 25 25 25 26 26 27 27 27 27 28 27 25 26 29 28 29 28 27 27 27 27 24 21 21 20 20 19 19 19
17 17 18 18 19 19 19 20 20 20 21 22 22 23 23 23 23 22 22 22 22 21 21 20 20 19 20 23 25 25 25 25 26 26 26 26 26 26 26 26 25 25 25 25 25 25 25 25 25 25 24 25 26 25 25 25 24 25 25 24 24 23 25 27 26 26 27 27 28 28 24 25 29 28 28 27 27 28 28 28 25 22 21 20 20 19 19 19
17 17 18 18 19 19 19 19 20 21 22 22 22 22 22 22 22 22 21 21 21 21 20 20 19 19 21 23 25 25 25 25 26 27 26 26 26 26 27 26 25 24 24 24 25 25 25 25 25 25 25 25 25 25 25 25 24 24 23 23 23 22 24 26 26 26 27 27 28 27 24 25 28 28 28 27 27 27 28 28 26 23 22 21 20 19 19 20
17 18 18 18 19 19 19 19 20 21 22 22 22 22 21 21 21 21 20 20 20 20 19 19 19 19 22 24 25 25 25 25 26 27 26 26 26 27 27 26 25 24 24 24 25 25 25 25 24 24 25 25 25 25 25 24 23 23 22 22 23 23 23 24 26 26 26 26 27 27 25 26 27 28 29 27 27 27 27 28 26 24 22 21 21 20 20 20
17 18 18 19 19 19 19 19 20 21 22 22 22 21 21 21 20 20 20 19 19 20 19 19 18 19 23 25 25 25 25 25 26 26 27 27 26 27 27 25 24 24 24 25 25 25 25 25 24 24 24 24 24 25 24 21 22 22 22 22 22 22 22 22 25 26 26 25 26 26 25 26 27 28 28 27 27 27 27 28 27 24 22 21 21 20 20 20
17 18 19 19 19 19 19 19 20 21 21 22 22 21 20 20 20 20 20 19 18 19 19 19 19 21 24 26 25 25 25 25 26 26 26 26 25 26 27 26 25 24 25 25 25 25 25 24 24 25 24 23 24 25 22 21 22 22 22 22 22 22 22 22 24 25 26 26 25 25 25 25 26 27 27 27 26 26 27 27 26 24 23 22 21 21 20 20
17 18 19 19 20 19 19 19 19 20 21 22 22 21 21 20 19 20 19 19 20 22 22 21 22 23 24 24 24 24 24 25 26 26 25 25 25 25 26 26 25 25 25 25 25 25 25 25 24 24 24 24 24 25 24 24 24 23 23 22 21 21 22 23 24 25 26 25 25 25 25 25 26 26 27 26 25 26 26 26 25 24 24 23 22 21 21 20
17 18 19 19 20 19 19 19 19 20 21 22 22 20 19 18 20 21 18 18 20 21 22 22 21 22 23 23 23 23 25 25 26 26 25 25 24 25 25 25 25 26 25 25 25 24 24 25 24 24 24 24 25 24 24 24 24 23 23 22 22 21 21 24 25 25 26 25 25 26 25 25 26 26 27 26 25 25 26 26 26 25 24 23 22 22 21 21
17 18 19 20 20 19 19 19 19 19 20 21 21 18 17 16 18 20 17 18 19 17 20 21 20 20 21 22 22 23 24 24 25 25 25 25 25 25 25 25 25 25 24 24 24 24 24 24 24 24 25 24 24 23 23 23 23 23 22 22 22 21 22 24 25 25 25 25 25 26 25 25 26 26 26 25 26 26 25 25 25 25 24 23 22 22 22 21
18 18 19 20 20 19 19 19 19 19 19 20 19 16 15 15 17 17 16 19 19 16 18 19 19 20 21 21 21 22 23 24 26 25 24 25 25 26 25 24 25 24 24 24 24 24 23 23 24 25 24 23 23 23 23 23 23 23 22 22 21 22 23 24 25 25 25 24 25 26 25 25 26 26 26 25 25 26 24 23 23 23 23 23 23 22 22 22
18 18 19 20 20 20 19 20 19 19 18 18 17 16 15 16 16 16 16 18 19 19 20 21 21 21 22 22 21 22 23 24 26 26 25 25 25 25 25 24 24 24 24 24 24 23 22 24 25 24 23 23 24 23 23 23 23 22 22 21 21 23 22 22 25 26 25 24 24 25 24 24 25 25 26 25 24 25 25 24 23 22 22 22 21 22 22 22
18 18 19 20 20 20 20 20 19 18 17 16 16 16 16 16 16 16 16 18 19 21 21 21 21 22 23 24 22 23 24 23 25 26 25 25 25 24 25 25 24 24 24 24 24 23 23 25 25 24 24 24 24 23 23 23 23 23 23 22 22 23 23 22 24 24 24 24 24 24 23 23 26 26 28 26 23 25 25 24 25 24 23 22 21 22 22 22
18 18 19 20 20 20 20 20 19 17 17 17 16 16 16 16 16 16 17 19 21 22 22 21 22 23 24 24 22 23 24 24 25 25 25 25 26 25 25 25 24 25 24 23 24 23 24 25 24 24 25 24 24 24 23 23 22 22 23 24 23 24 24 23 23 22 22 23 24 24 21 22 26 27 28 27 25 26 25 24 25 24 22 22 22 22 22 22
18 18 19 19 20 20 21 20 18 17 17 17 17 17 16 17 16 16 18 21 22 24 25 24 24 25 25 24 23 24 24 26 26 25 25 26 26 26 25 24 24 25 24 23 23 24 25 25 25 25 25 24 24 24 24 24 22 21 24 25 25 25 24 23 23 22 21 22 24 24 22 21 23 26 28 27 25 27 26 26 27 25 22 21 22 21 21 22
18 18 19 19 19 20 20 19 18 17 17 17 17 17 16 17 16 16 19 21 22 23 25 25 25 26 26 24 24 24 24 26 26 25 26 26 26 26 26 25 25 24 24 24 23 23 25 25 25 25 25 24 24 24 24 24 22 22 26 26 25 25 24 24 23 22 22 22 23 24 23 21 21 24 26 24 25 27 27 28 29 27 24 21 20 20 20 21
18 18 19 19 19 19 18 17 17 17 17 17 17 17 17 17 17 17 20 21 22 24 25 25 26 27 26 24 24 25 25 26 26 26 26 26 27 26 26 26 25 25 25 24 23 23 25 26 26 25 25 24 24 25 25 24 23 24 26 26 24 25 24 24 23 22 22 22 21 23 23 21 21 24 25 23 25 27 28 29 29 27 25 22 20 20 20 21
19 18 19 19 19 18 18 17 17 17 18 18 17 17 17 17 17 20 21 21 22 24 24 25 27 26 25 25 25 25 25 26 26 26 26 26 26 26 25 25 25 25 25 24 24 25 25 25 26 25 25 25 25 26 25 24 25 25 25 24 24 24 24 23 23 22 22 21 21 22 22 21 21 23 24 24 24 26 28 29 28 26 24 22 20 19 20 21
19 19 19 19 19 18 18 18 18 18 18 18 18 18 17 18 19 21 21 21 22 23 23 24 25 24 23 25 25 24 25 25 24 25 26 25 26 26 25 24 25 25 24 24 24 25 25 24 24 25 25 25 26 26 25 24 24 25 24 24 24 24 23 22 22 21 21 21 21 22 21 21 21 22 24 25 25 25 27 28 27 25 23 22 20 19 19 20
19 19 19 19 18 18 17 18 18 18 18 19 18 18 18 20 21 21 21 21 22 22 23 23 23 23 22 23 23 23 24 24 23 24 25 25 25 26 25 24 24 24 23 23 23 23 24 24 24 25 25 25 26 26 25 24 23 24 24 24 23 22 22 21 21 21 21 21 21 21 21 21 21 22 25 26 26 24 24 26 26 24 23 22 20 19 19 19
19 19 19 19 18 18 17 17 18 18 19 19 18 19 21 22 21 20 21 21 21 22 22 22 22 22 21 22 22 22 22 23 23 23 23 23 24 23 22 22 22 22 21 22 22 22 24 25 25 25 25 24 25 25 25 24 24 24 24 23 22 21 21 21 21 21 20 21 21 21 21 21 21 23 25 26 25 23 23 24 23 22 22 21 20 19 19 19
19 19 19 19 18 18 18 18 19 19 19 19 19 21 22 22 20 20 20 21 21 21 22 22 22 21 21 22 22 21 22 22 22 22 22 22 23 22 21 21 21 21 21 20 21 21 23 24 25 25 25 24 24 24 23 24 24 24 23 22 21 20 20 20 20 20 20 21 21 20 21 21 21 23 24 24 23 22 21 21 21 21 21 20 19 18 18 18
19 19 19 19 18 18 18 19 19 19 19 19 21 23 22 21 20 19 19 20 20 21 22 21 21 21 22 21 21 21 22 22 21 22 22 22 22 22 21 21 20 21 21 20 20 20 21 22 24 24 24 24 24 24 23 23 24 24 23 23 22 21 20 20 20 20 20 21 20 20 21 21 22 22 22 21 21 20 20 20 21 21 21 20 19 18 17 17
20 20 19 19 19 18 19 19 19 19 18 19 22 23 21 20 19 19 19 19 19 20 20 20 20 21 22 21 20 20 21 21 21 21 22 22 21 20 20 20 20 20 20 20 20 20 20 21 22 23 22 23 23 23 23 24 23 22 22 23 22 21 21 20 20 20 20 20 20 20 21 21 22 22 21 20 21 21 21 21 21 21 21 20 19 18 17 17
20 20 19 18 18 18 19 19 19 19 18 20 23 21 19 19 19 18 19 19 19 19 19 20 21 21 21 20 21 21 21 21 21 21 21 21 19 19 20 20 20 19 20 20 20 20 20 21 22 23 23 23 21 22 23 23 23 22 22 22 22 22 22 21 20 19 19 19 20 20 21 21 22 22 22 21 22 22 22 21 21 21 20 20 19 18 18 17
19 19 18 18 18 19 19 19 20 19 19 21 22 19 17 18 19 19 19 19 19 19 19 20 20 20 20 20 20 20 20 20 20 20 20 20 19 18 18 19 19 19 19 19 20 20 19 20 21 22 23 23 21 21 23 22 22 23 22 22 22 22 21 21 20 20 20 20 20 20 20 21 21 22 22 22 23 23 21 20 20 21 20 19 18 17 17 17
17 17 17 17 18 19 19 20 20 18 19 21 20 17 17 18 19 19 18 18 18 19 20 20 20 19 19 19 20 20 19 20 20 19 20 20 19 17 16 17 18 19 18 19 20 20 19 19 20 20 21 22 21 22 23 22 22 23 22 22 22 21 21 20 20 20 20 19 19 20 20 20 21 21 20 20 20 20 19 20 20 19 17 16 16 16 17 16
16 17 18 17 18 19 20 20 19 19 20 20 18 17 17 17 18 18 18 18 18 19 19 19 19 19 19 19 19 19 19 19 19 19 19 20 19 17 15 16 17 18 18 19 19 19 19 19 20 19 19 20 21 22 22 21 22 22 22 22 21 20 21 20 20 20 20 19 19 19 20 20 20 18 16 16 16 16 16 18 19 17 15 15 15 15 16 16
13 17 18 17 18 19 20 20 19 18 19 17 16 16 16 17 18 18 18 18 18 19 19 18 19 19 19 19 18 18 18 19 19 18 19 19 18 17 15 15 16 16 17 19 18 18 18 18 18 19 19 19 20 21 20 20 21 21 21 21 20 21 20 20 19 19 19 19 19 19 19 20 19 16 15 15 15 14 15 17 17 16 15 15 15 15 15 15
12 17 18 17 18 19 20 19 17 15 16 15 15 16 16 16 17 18 18 18 18 19 18 18 18 18 18 18 18 18 18 18 18 19 19 18 17 17 15 14 15 16 17 18 17 17 17 17 17 17 17 18 19 21 21 21 20 20 20 20 19 20 20 19 19 18 18 18 18 17 18 20 19 16 15 15 14 14 14 15 16 15 15 15 15 15 15 15
13 18 17 17 18 19 19 18 14 13 15 15 15 15 15 16 17 17 18 18 18 18 18 18 18 17 17 17 17 17 17 18 18 18 18 17 15 15 15 14 15 16 16 16 16 16 16 16 16 16 17 18 19 19 19 19 19 19 19 19 19 19 19 19 18 18 18 17 17 16 17 19 19 16 15 15 15 15 15 15 15 15 15 15 15 15 15 15
14 16 17 17 17 18 19 17 14 14 15 14 14 15 15 16 16 16 17 17 17 17 18 17 17 17 16 16 17 17 17 18 18 17 17 16 15 14 14 14 15 16 16 15 15 16 17 16 16 16 17 17 18 18 18 18 19 19 18 18 18 18 19 19 18 18 18 17 17 17 16 19 19 16 15 15 16 16 16 16 16 16 15 15 16 16 16 16
10 10 13 16 17 18 17 16 15 15 14 13 14 15 15 16 16 15 16 16 16 16 17 16 16 16 16 15 16 16 16 17 17 16 15 15 15 15 14 14 15 15 16 15 15 16 16 16 16 15 15 16 17 18 17 18 18 17 16 17 17 18 18 18 17 17 17 17 18 16 16 19 19 16 15 16 17 18 18 17 17 16 16 15 16 17 17 16
10 10 11 13 15 15 14 13 13 14 13 13 14 15 15 15 15 15 15 15 15 15 15 16 15 15 15 15 15 15 15 16 16 15 15 14 14 15 14 14 14 15 16 16 16 15 15 16 16 15 14 14 15 15 15 15 15 15 15 16 17 18 17 17 16 16 16 17 17 16 17 18 18 17 17 18 18 18 18 18 18 17 16 15 15 16 17 17
12 14 14 14 14 12 11 11 11 13 13 12 14 14 13 14 14 14 15 15 14 14 14 14 14 14 14 14 14 14 14 14 15 15 14 14 14 14 14 14 14 15 16 16 16 16 15 15 15 15 15 14 14 15 14 14 13 14 14 15 16 16 16 16 15 15 16 16 16 17 17 17 18 18 18 18 19 18 18 18 18 18 17 16 15 15 15 17
12 13 13 13 14 13 12 11 10 12 12 11 13 13 12 12 13 14 15 14 14 14 14 13 13 13 13 13 13 13 13 13 14 13 13 13 13 14 14 14 15 15 15 15 15 15 14 13 14 15 14 14 14 14 14 13 13 13 13 13 14 15 16 15 15 15 16 15 15 17 17 16 17 18 18 18 19 18 18 18 18 18 19 18 16 15 14 16
12 12 10 10 13 13 12 11 10 11 11 11 12 12 11 12 12 13 13 13 13 14 13 13 13 12 12 12 12 13 12 12 13 12 12 12 12 12 13 14 14 14 14 14 14 15 13 12 14 14 14 14 13 13 14 13 13 13 13 13 13 14 14 14 14 15 15 15 15 16 17 16 16 17 17 18 19 19 18 18 17 17 17 16 15 14 14 17
11 11 9 9 11 11 11 10 10 10 11 11 11 11 11 11 12 11 12 12 13 13 13 13 12 12 11 12 12 12 11 11 11 10 11 11 11 11 12 13 14 14 14 14 14 14 13 12 13 13 13 13 12 13 13 13 13 13 13 13 13 13 13 13 14 14 15 15 15 16 16 16 16 17 17 18 19 18 17 16 16 16 16 16 15 14 15 17
10 11 10 9 10 10 9 9 10 11 11 11 11 11 10 10 11 11 11 12 12 12 12 12 12 11 10 11 11 10 9 10 9 9 10 10 10 11 12 12 13 13 13 13 13 13 13 12 13 13 12 12 12 12 13 13 13 12 12 12 12 12 12 12 13 13 14 14 14 15 14 15 16 17 17 17 17 16 16 16 16 16 16 16 15 15 15 16
8 8 8 10 11 10 9 10 9 10 11 10 11 11 10 10 10 9 11 11 11 11 11 10 11 11 10 10 10 9 9 9 8 9 10 9 9 11 12 12 12 12 12 13 13 13 13 12 12 12 11 11 12 12 12 12 12 11 11 12 12 12 13 13 13 13 13 13 13 13 13 14 16 16 16 16 17 16 16 16 16 15 15 15 15 15 15 16
7 7 7 9 11 10 9 10 9 10 11 10 9 10 9 10 9 9 11 11 10 10 10 9 10 11 10 10 10 9 9 8 8 9 9 9 9 10 10 11 11 11 11 12 12 12 12 12 11 11 10 10 11 11 11 11 10 11 12 11 11 12 12 12 12 13 13 13 12 12 12 13 13 12 12 14 14 13 14 14 14 14 14 14 15 15 16 16
Height
814 812 811 809 807 805 803 801 800 798 796 794 793 791 789 788 786 784 783 781 780 779 778 777 775 774 773 772 771 769 768 767 765 766 765 758 755 757 759 761 762 764 766 768 769 771 772 774 774 774 775 776 780 780 781 781 782 787 795 803 803 802 796 787 783 781 779 775 768 763 761 763 761 754 749 748 750 752 754 753 751 749 746 744 744 745 747 749
814 812 810 808 806 804 803 801 799 797 795 793 792 790 788 787 785 783 781 780 779 778 777 776 775 774 772 772 770 769 767 765 764 763 759 754 755 757 759 761 762 764 766 767 768 770 773 774 773 774 775 779 781 780 782 781 782 789 798 802 798 792 784 777 776 774 775 773 767 763 762 763 759 754 751 752 754 753 756 755 752 752 747 744 745 746 748 750
813 811 809 808 805 803 802 800 798 796 794 792 791 789 787 785 784 782 780 779 778 777 776 775 774 773 772 771 769 769 767 765 764 759 755 753 755 756 758 761 762 764 765 767 768 769 771 772 772 774 778 781 782 782 783 782 784 787 794 798 790 781 777 774 774 772 770 769 767 764 761 762 757 753 753 753 754 755 756 753 752 753 746 743 745 746 747 751
813 811 809 807 804 802 800 798 797 795 793 791 789 787 786 784 782 781 779 778 776 775 774 774 773 772 772 770 770 769 765 766 763 755 754 754 755 756 758 760 762 764 765 766 768 769 770 771 772 774 780 784 784 784 784 783 784 786 789 790 781 777 777 772 770 768 765 766 767 763 761 761 755 753 753 751 756 758 753 747 746 745 740 740 744 745 747 750
812 810 808 806 803 801 799 797 795 793 791 789 788 786 784 782 781 779 778 777 775 774 773 773 772 771 771 769 770 768 767 773 764 753 755 755 755 757 758 761 762 764 765 767 768 770 771 771 773 777 782 785 785 784 784 781 781 784 783 779 775 776 776 768 765 765 763 764 765 763 762 757 752 752 751 751 755 752 743 738 737 735 733 735 740 743 746 748
812 810 807 805 802 800 798 796 794 792 790 787 786 784 782 781 779 778 776 775 774 773 772 772 771 770 770 769 770 767 771 776 761 753 756 755 756 757 758 761 762 763 765 767 768 770 771 772 775 780 784 786 786 785 783 780 780 784 780 774 772 773 774 766 762 762 761 763 763 761 757 753 754 752 748 748 747 739 731 730 730 729 729 731 736 740 744 746
812 809 807 804 801 799 796 794 792 790 788 786 784 782 780 778 777 776 774 773 772 771 770 770 770 769 769 769 769 768 772 770 756 755 756 755 757 756 758 760 761 763 765 767 768 771 772 775 778 781 785 786 786 784 782 780 779 783 780 774 771 771 771 764 761 761 760 762 757 754 755 753 754 751 747 744 737 730 728 728 728 727 728 731 735 738 740 741
811 808 806 803 801 798 795 793 790 788 786 784 782 780 778 776 775 773 772 772 770 769 769 768 769 768 768 768 768 771 772 763 754 756 755 755 757 756 758 760 761 763 764 766 768 770 773 776 778 780 785 785 784 783 781 780 779 780 778 773 770 769 766 762 761 760 758 756 752 753 754 750 747 747 745 739 731 727 727 727 727 728 730 732 734 736 738 739
810 808 805 802 800 797 794 791 788 786 784 782 780 778 776 774 773 771 770 769 768 767 766 767 768 767 768 768 769 773 767 757 755 755 754 755 755 756 758 758 761 762 764 767 767 769 773 776 777 777 781 782 782 781 779 782 782 776 775 772 770 767 762 760 760 756 755 752 750 753 750 744 742 744 741 730 726 727 726 727 728 729 731 731 732 733 736 737
809 806 804 801 798 796 793 790 787 784 782 780 778 776 774 772 771 769 768 767 765 764 764 765 766 766 768 766 771 774 761 753 755 754 754 754 755 756 757 758 759 761 764 766 767 769 770 773 773 772 776 780 781 780 779 782 780 773 773 772 769 767 762 761 759 753 753 750 749 751 747 741 740 745 742 726 723 728 726 728 730 730 730 730 731 732 734 735
808 806 803 800 797 795 791 788 785 782 780 778 776 774 772 770 769 767 766 765 763 762 763 764 765 766 767 766 772 771 756 753 755 753 754 754 754 756 756 757 758 760 763 766 767 767 768 769 769 771 777 779 779 779 776 775 774 771 772 771 768 765 761 759 758 754 753 750 746 748 745 740 742 745 738 726 725 727 726 729 730 730 729 729 729 731 733 734
808 805 802 799 796 793 790 787 783 781 779 776 775 772 770 768 767 766 764 763 762 762 762 763 765 765 766 769 770 762 753 754 754 753 755 754 755 756 756 758 758 760 762 764 767 766 768 768 768 774 778 777 780 781 775 770 772 771 772 773 769 765 762 758 755 753 754 751 744 746 749 744 744 742 731 726 727 726 727 728 729 731 730 729 729 731 733 733
808 805 801 799 795 792 789 785 782 780 777 775 773 771 768 766 765 764 763 763 762 762 763 763 765 764 767 769 762 754 754 754 753 754 754 754 755 756 757 758 759 761 761 763 766 766 768 768 769 773 773 776 781 778 772 770 773 773 773 775 775 772 766 758 756 754 753 751 743 748 761 754 743 736 729 728 727 726 727 727 729 731 730 729 729 731 731 732
807 804 801 798 794 791 787 784 781 779 776 775 772 769 767 765 764 764 763 763 762 763 763 764 765 765 768 765 756 753 754 753 753 754 754 754 755 756 757 758 759 761 762 764 765 766 768 768 769 772 772 775 775 772 773 776 777 776 776 778 783 784 770 757 756 756 754 752 743 750 768 760 743 734 726 726 727 727 727 724 728 730 729 729 729 730 730 729
806 803 800 797 794 790 786 783 780 778 776 774 771 768 766 765 764 763 763 763 763 764 763 764 765 765 768 763 754 753 753 752 753 753 754 755 755 756 756 757 760 761 763 764 765 767 768 768 771 774 774 771 772 777 781 782 780 782 784 783 787 788 776 760 755 756 757 755 747 754 769 760 744 733 725 726 727 727 727 723 725 728 728 728 728 728 728 727
806 802 799 797 793 790 786 782 780 778 776 773 771 768 766 766 765 764 764 764 764 765 764 766 765 766 769 763 754 753 753 753 753 753 754 754 755 756 756 758 760 761 763 764 765 766 766 768 771 774 774 773 778 783 785 787 787 788 791 789 787 787 784 771 757 753 757 757 753 758 768 761 746 733 723 725 727 728 728 723 723 726 727 727 727 727 727 727
805 802 799 796 793 790 786 782 780 778 775 773 770 768 767 766 765 765 764 764 766 765 765 766 765 767 765 757 755 757 754 753 753 753 753 753 755 756 757 759 760 762 763 763 765 766 767 770 773 775 777 780 782 783 792 800 795 792 794 792 789 788 789 781 765 755 755 759 758 759 764 760 747 736 727 725 728 729 728 723 722 724 726 727 726 727 727 727
805 802 798 795 792 789 786 783 781 778 776 773 769 768 768 766 766 766 765 765 765 765 766 765 765 770 767 757 757 759 755 753 753 753 753 753 754 756 757 759 760 761 764 766 767 768 770 772 776 779 781 784 784 786 798 803 794 793 794 793 793 789 788 784 773 760 755 759 761 760 762 756 746 738 730 727 729 729 726 724 723 723 724 725 725 726 725 726
805 802 798 795 792 789 786 784 781 779 776 773 770 768 767 765 765 765 765 765 765 766 768 767 766 770 768 759 757 757 754 753 753 752 752 752 754 756 758 759 760 763 769 774 773 771 773 775 780 784 786 786 784 785 790 788 786 789 791 793 795 793 787 779 770 759 757 761 759 757 759 754 746 739 731 729 730 730 726 723 722 721 721 722 722 722 722 723
805 802 798 795 792 790 787 784 783 780 777 774 771 767 770 773 772 769 768 766 766 767 767 767 766 766 764 759 756 756 755 753 752 752 752 752 753 756 759 761 764 767 773 778 777 773 774 781 787 786 784 782 780 781 781 782 785 788 791 793 793 795 788 772 763 757 756 764 759 752 756 754 747 739 732 732 732 730 728 724 722 720 720 721 720 719 719 717
805 802 798 795 792 790 787 785 784 782 780 777 772 773 782 789 787 784 779 770 764 765 765 764 765 765 761 758 756 756 757 756 753 751 752 752 752 759 764 765 770 775 775 777 778 775 777 787 786 778 776 776 777 780 781 784 786 788 791 793 793 794 786 768 761 757 755 764 759 750 755 752 743 738 733 733 733 730 729 727 724 721 720 720 719 717 715 713
805 801 798 795 792 790 788 787 786 784 783 780 777 782 790 793 793 793 790 781 768 763 765 763 763 763 758 756 755 756 761 761 756 752 752 753 754 761 767 768 775 778 776 777 780 782 787 788 778 770 773 776 776 779 782 784 786 788 790 794 794 787 780 769 758 755 757 763 760 752 757 752 740 736 734 733 731 728 728 728 726 725 722 719 717 715 713 713
805 801 798 795 792 790 788 787 787 785 784 783 784 788 792 793 792 791 792 791 778 764 762 763 762 762 758 756 755 756 762 764 761 755 750 753 758 762 766 770 775 777 778 779 781 789 792 781 769 768 772 774 776 777 781 783 784 787 789 793 792 780 782 779 760 754 758 760 760 756 759 754 742 737 733 732 731 727 724 724 724 724 722 718 716 714 713 712
806 801 798 795 792 790 788 788 787 786 786 786 788 790 792 792 791 791 790 791 785 768 761 761 760 760 759 756 755 758 762 762 762 756 750 753 759 762 765 768 775 778 777 777 779 786 784 770 765 769 770 772 776 777 780 784 784 784 783 787 786 775 777 778 765 761 758 756 756 756 761 754 742 740 734 730 732 727 724 723 720 719 718 716 714 712 710 709
806 802 799 795 793 790 788 789 788 788 789 788 790 790 791 791 789 790 789 789 787 771 760 760 760 759 756 755 757 757 760 760 757 753 749 751 756 761 765 766 771 776 776 777 779 782 775 764 763 767 768 770 775 776 777 780 783 782 775 773 773 768 769 770 769 772 770 764 754 755 770 762 742 741 735 730 732 727 726 726 721 719 718 716 714 711 709 706
806 803 799 796 794 791 788 789 790 790 789 789 791 790 790 790 787 789 789 790 786 773 765 763 762 760 756 757 758 756 763 761 750 748 749 749 750 755 765 767 768 772 774 775 779 778 769 761 762 766 767 770 774 775 771 772 782 784 768 759 762 764 768 768 769 775 777 771 756 754 773 771 750 740 734 733 734 727 724 723 718 718 719 717 715 712 709 706
806 803 800 797 795 792 790 792 793 791 791 791 790 789 789 787 786 788 788 795 793 778 771 767 764 762 758 758 756 759 772 764 749 750 748 749 749 751 763 769 768 770 768 773 781 775 765 761 764 766 767 771 774 772 765 766 779 778 758 753 760 762 765 766 766 773 771 766 761 755 762 771 761 744 736 738 736 728 724 719 714 713 714 716 715 712 709 706
807 803 801 799 797 795 794 795 794 792 793 792 788 787 787 784 786 787 790 802 798 777 773 770 762 759 758 758 757 762 768 761 759 758 746 747 751 752 763 766 766 768 764 773 782 772 762 763 764 765 769 772 769 763 760 763 771 764 750 752 758 757 760 761 764 771 768 770 772 759 756 771 766 744 739 744 738 731 726 718 715 713 712 713 713 712 708 706
807 804 802 800 799 797 796 796 795 793 792 790 787 785 783 783 785 787 794 805 794 776 775 771 763 764 764 761 762 764 762 760 766 760 747 750 752 752 763 763 762 767 764 768 774 766 761 761 759 763 768 767 761 756 756 762 763 754 750 755 755 756 759 761 766 767 768 778 777 760 757 769 766 746 738 742 740 735 727 719 717 716 715 714 714 712 709 706
808 805 803 801 800 798 797 796 795 794 791 787 786 783 781 783 785 793 804 805 793 782 777 773 773 776 774 770 770 768 766 767 767 760 754 756 754 752 758 758 759 765 766 768 769 764 760 758 758 760 761 758 755 752 752 756 756 751 753 757 755 759 762 765 769 767 774 780 768 759 760 766 770 754 736 735 735 732 727 721 719 718 717 717 715 713 711 708
808 806 804 802 801 799 797 796 794 793 790 786 784 780 781 786 790 803 810 799 793 789 782 782 782 780 781 783 781 776 773 772 769 767 766 763 762 761 763 765 766 769 773 772 771 768 763 760 760 757 754 753 754 754 752 753 755 754 758 761 762 765 764 767 770 770 781 780 762 763 766 767 773 757 734 731 730 730 731 725 723 723 721 720 718 717 714 713
809 807 805 803 802 801 799 797 794 792 789 786 783 781 785 792 799 809 807 795 797 797 790 791 787 784 788 788 788 785 781 778 775 775 777 775 774 776 779 782 781 783 786 783 778 775 766 761 759 756 753 754 758 760 757 754 755 757 760 764 772 779 779 780 779 779 785 776 763 768 768 766 767 749 733 731 728 730 732 728 727 727 726 724 723 722 719 717
809 807 805 804 803 802 801 798 795 792 788 785 784 783 790 801 809 814 810 803 805 800 793 793 791 790 791 790 792 790 785 785 783 780 781 780 781 784 786 786 785 788 793 792 789 783 774 765 758 757 757 756 760 765 766 762 758 760 763 767 777 789 797 799 793 792 791 774 764 769 769 767 760 743 737 735 730 731 732 729 730 729 729 729 726 725 723 721
809 806 805 805 803 802 801 798 795 792 788 785 784 787 797 809 814 815 814 811 807 799 795 797 796 793 791 794 798 793 789 791 788 785 784 783 786 789 790 788 786 787 789 792 794 793 792 783 767 764 764 760 759 763 767 764 760 762 763 766 774 782 794 800 793 789 786 774 770 770 767 764 754 742 739 736 732 732 731 730 730 728 729 729 727 727 725 723
809 806 805 804 804 803 800 798 795 792 789 786 788 796 807 817 820 819 818 814 808 802 800 800 798 796 796 798 798 794 794 794 790 789 789 790 796 798 796 794 791 791 792 795 796 795 799 790 771 766 765 762 763 762 760 761 765 767 763 766 774 775 780 788 786 783 785 784 779 771 762 755 745 738 737 736 733 731 729 729 728 729 729 728 728 728 727 726
808 806 805 805 804 802 800 798 795 793 791 788 793 807 817 821 821 821 818 813 810 809 807 802 799 801 804 803 800 797 794 795 795 795 793 796 802 803 800 798 795 795 796 800 800 798 801 791 771 765 763 761 767 764 757 763 767 767 767 770 772 769 771 780 785 784 788 790 783 772 763 752 745 742 736 735 734 729 730 733 732 732 732 731 732 732 730 728
808 806 806 805 804 802 800 798 795 793 792 792 801 816 824 821 817 817 814 811 811 809 809 809 805 806 810 807 804 802 798 797 800 801 799 800 805 807 805 802 797 796 798 800 799 797 803 798 779 772 769 762 764 763 758 761 762 766 773 771 766 767 770 778 787 788 789 792 783 774 769 761 758 753 742 738 737 734 736 738 736 736 737 739 740 738 737 734
809 807 807 806 805 803 800 797 795 794 793 799 812 823 825 820 815 814 814 812 811 808 810 813 809 807 812 812 809 806 804 804 806 807 804 804 809 811 812 810 802 797 797 797 796 795 800 800 786 778 778 770 764 764 764 761 758 764 770 766 768 779 780 782 789 790 794 798 787 776 774 769 764 759 754 751 749 748 747 743 742 746 747 748 746 742 741 739
811 808 808 808 805 803 800 797 795 795 797 809 822 826 824 821 815 813 814 812 811 810 812 814 811 809 811 812 811 809 809 809 810 811 808 806 810 812 815 815 807 801 798 795 797 797 798 802 794 782 780 778 770 770 777 774 765 763 766 767 772 779 780 782 785 785 791 798 793 784 778 770 765 768 771 768 764 763 758 749 749 753 752 750 748 745 743 742
814 812 810 809 806 803 801 798 798 801 808 820 829 827 824 822 817 813 813 812 811 810 813 815 814 813 811 811 813 813 811 810 810 811 810 808 810 813 816 817 813 807 800 795 799 801 799 805 803 788 783 786 783 780 782 783 778 774 774 777 779 776 776 780 781 780 784 790 792 791 784 771 765 770 774 771 769 767 762 755 752 752 750 749 748 746 745 743
818 816 813 809 807 805 801 801 809 817 822 828 831 828 825 823 820 816 813 812 811 810 811 813 814 816 815 814 816 815 813 811 810 810 810 810 814 817 818 818 816 811 804 802 805 806 806 808 806 800 796 796 790 780 776 777 779 780 780 782 783 781 781 787 789 784 783 789 792 796 792 773 761 765 768 767 766 763 762 760 757 754 751 748 747 745 744 744
821 820 816 811 808 805 802 811 824 829 827 828 830 829 826 823 821 819 815 813 813 810 810 812 815 818 818 817 817 817 816 814 812 811 812 815 820 822 820 818 815 810 808 811 811 808 808 809 808 805 800 795 786 777 776 779 778 779 780 781 784 785 785 791 795 788 787 793 793 796 795 774 758 763 766 763 761 759 759 760 760 758 754 749 747 745 742 741
827 824 817 812 810 805 807 818 828 830 829 830 830 827 826 824 823 821 819 817 817 815 814 816 818 819 820 821 819 818 819 816 814 814 816 819 822 822 821 817 814 810 811 816 814 807 806 809 811 805 794 787 781 776 778 779 778 782 785 784 786 786 783 786 789 787 789 792 788 793 794 772 756 761 764 761 758 754 754 755 756 757 755 751 748 745 743 740
834 830 822 817 811 806 814 826 830 831 833 833 830 826 825 824 824 824 823 822 821 820 819 820 821 821 822 823 821 821 822 819 817 818 820 822 822 820 819 817 815 814 814 817 816 812 812 812 814 813 806 798 790 786 787 785 785 792 793 789 786 784 783 785 787 790 791 786 783 791 789 768 757 761 762 758 755 750 750 750 751 752 753 752 749 746 745 743
834 830 826 822 815 813 824 835 835 834 835 835 832 830 829 826 825 826 825 825 824 824 824 823 823 823 824 825 823 823 824 823 822 822 822 824 822 818 818 818 818 815 814 814 813 813 816 816 815 820 823 818 810 806 805 802 800 799 796 792 788 786 788 790 792 796 793 784 781 784 779 765 758 760 759 755 753 751 749 746 746 748 751 752 751 748 747 745
834 830 828 826 822 825 833 839 839 836 837 838 834 832 835 833 830 827 825 826 826 825 826 826 825 825 826 827 827 828 827 826 826 825 826 828 825 820 819 818 818 817 813 813 811 811 816 818 815 816 818 818 814 809 808 810 808 804 800 798 795 791 790 793 797 797 790 785 781 774 770 768 760 756 756 754 751 751 748 745 744 742 743 747 749 750 749 746
837 837 837 834 829 831 836 840 842 840 840 841 837 836 839 839 834 829 826 828 829 827 828 829 829 829 831 832 831 831 832 830 829 829 831 831 827 824 821 818 817 817 813 813 813 813 818 821 817 814 811 809 808 807 807 809 807 802 800 800 798 794 791 793 795 789 785 788 783 768 766 772 762 752 753 753 750 750 749 746 744 739 738 741 744 748 749 746
838 841 844 842 837 837 838 840 844 843 842 842 840 840 842 841 838 836 832 830 830 830 830 831 832 834 836 836 833 833 836 833 832 834 834 832 832 830 826 820 818 817 816 816 815 816 822 822 815 813 809 805 807 810 808 806 803 798 797 797 797 795 793 791 787 782 783 787 779 767 766 770 760 750 751 750 746 745 744 743 743 741 740 741 742 745 745 741
841 842 845 845 843 843 844 844 846 845 842 841 841 841 844 843 842 842 840 836 834 834 834 833 835 837 838 836 833 837 842 839 839 842 837 835 837 834 829 823 819 818 818 818 818 818 822 820 814 814 810 803 806 810 806 802 800 795 793 794 794 792 789 787 784 780 779 777 771 765 764 761 752 746 747 746 742 742 742 742 742 742 741 741 742 743 741 736
842 842 844 845 844 846 847 846 846 844 841 842 842 842 846 846 844 845 844 840 840 839 839 838 838 839 841 839 837 842 847 845 847 848 841 840 841 835 830 826 821 820 820 820 821 820 821 820 814 816 815 805 801 807 805 801 800 798 795 793 791 789 787 785 784 780 778 776 770 766 766 758 746 742 745 743 741 743 744 742 740 739 739 739 739 739 737 733
843 843 844 844 843 845 846 846 847 844 841 843 843 842 846 847 846 848 845 842 844 843 843 843 841 840 842 841 841 845 847 846 848 845 840 841 841 834 830 827 824 824 823 821 822 820 820 821 815 818 823 810 801 808 809 803 803 802 797 792 788 785 783 780 780 779 777 775 771 769 770 761 748 746 748 745 743 745 744 741 739 737 737 736 736 735 733 731
844 844 846 845 843 845 846 846 848 845 841 844 846 845 846 847 847 848 842 841 846 846 846 846 843 840 842 842 843 844 845 844 843 839 837 836 835 832 831 827 825 826 825 822 822 821 820 821 819 823 827 815 807 811 811 810 811 802 793 794 793 787 783 780 779 777 774 774 774 773 772 766 761 761 759 754 752 751 747 744 742 740 738 737 735 732 729 726
Wind_Speed
23 24 24 24 24 24 24 24 24 24 24 24 23 23 23 23 22 20 19 17 16 16 16 16 16 16 15 14 14 13 13 13 11 7 8 8 7 7 8 6 9 13 12 11 9 4 0 2 3 5 4 3 2 0 1 1 2 3 3 2 3 4 4 4 6 5 1 7 8 9 3 4 7 5 1 2 2 3 1 1 2 3 4 5 4 6 6 13
24 24 24 25 25 24 25 24 25 25 24 24 24 24 23 23 22 21 19 18 17 16 15 15 15 16 15 14 14 13 14 13 11 10 9 5 1 6 11 9 9 12 11 11 10 7 4 0 3 5 4 2 2 1 0 0 2 2 3 1 4 5 5 6 5 4 2 7 11 13 7 6 8 5 1 3 5 2 2 4 2 4 8 7 2 5 11 15
25 25 25 25 25 25 25 25 26 25 25 25 24 24 24 23 22 20 19 18 17 15 15 14 14 15 15 13 12 12 13 10 6 6 3 1 7 9 12 14 11 10 8 7 7 8 6 4 5 5 4 2 2 1 1 0 2 2 3 2 6 6 6 5 5 6 7 9 11 13 6 4 7 4 1 5 4 2 5 7 4 6 12 9 3 8 13 14
26 26 26 26 26 26 26 26 26 26 26 26 25 25 24 24 22 20 18 17 16 15 14 13 13 14 13 12 10 10 11 5 2 3 5 4 7 13 14 16 14 10 8 4 3 6 7 5 5 4 4 1 3 1 1 2 3 1 4 5 6 3 5 5 6 9 9 7 7 9 6 5 7 3 3 4 2 2 7 9 10 11 14 11 6 8 12 13
27 27 27 27 27 27 27 27 27 27 27 27 26 26 25 24 22 19 18 17 16 15 14 13 12 12 11 10 8 9 8 4 2 3 5 6 4 14 15 14 13 11 8 5 5 7 6 4 6 5 3 1 3 2 2 4 3 1 4 7 7 3 6 8 6 8 8 5 6 7 7 7 3 2 4 5 5 6 8 10 13 14 14 11 10 10 11 11
27 27 28 28 28 28 28 27 27 27 27 27 27 26 25 24 22 20 18 17 16 15 14 12 11 11 9 7 5 6 3 1 5 4 4 6 1 13 15 13 12 10 8 7 8 8 5 5 5 3 3 1 2 1 4 3 2 2 5 4 7 5 6 9 6 6 6 4 6 7 4 3 3 5 6 8 9 10 9 9 12 14 11 8 10 11 12 13
27 28 28 28 28 28 28 28 27 27 27 27 27 27 26 24 22 21 20 18 17 16 14 11 10 9 6 4 3 4 3 4 9 7 8 7 2 12 16 14 12 10 9 9 9 5 4 6 3 3 3 2 2 4 5 3 2 3 5 4 6 6 7 10 8 7 7 7 10 6 3 4 8 7 2 7 12 13 10 6 8 9 6 9 9 12 14 14
29 29 29 29 28 28 28 28 28 27 27 26 27 27 25 24 22 22 21 19 18 16 13 11 8 5 2 1 1 3 1 6 7 6 6 4 3 13 17 15 14 12 10 11 10 6 4 5 4 4 1 4 3 3 4 3 2 4 4 6 5 5 8 10 9 9 9 9 9 5 6 10 10 5 1 9 14 12 9 6 5 5 7 9 11 13 13 12
31 31 30 30 30 30 29 28 28 27 27 26 26 25 24 23 23 23 22 21 19 15 13 10 6 2 3 2 4 2 3 4 4 8 5 3 5 13 17 15 16 15 10 11 10 9 5 3 5 4 3 3 1 3 2 5 3 4 4 7 7 9 10 9 9 10 9 7 4 5 10 11 6 1 4 12 12 6 4 3 4 7 8 9 11 12 12 12
32 32 32 32 32 31 30 29 28 27 27 26 25 23 22 22 22 23 23 21 18 13 10 7 5 4 6 4 6 1 4 1 5 10 7 3 6 14 18 15 17 17 11 10 10 9 6 5 6 4 3 1 2 3 2 2 3 4 5 8 8 11 10 6 9 11 8 6 5 5 10 10 3 1 5 10 6 2 3 3 4 7 9 10 10 10 10 11
34 34 34 34 33 33 31 30 29 27 26 24 23 22 21 21 22 23 21 18 14 9 6 6 5 6 7 4 5 3 4 2 5 12 10 2 8 14 19 17 17 18 13 9 10 11 7 7 5 3 1 1 3 5 6 3 3 5 7 8 9 10 9 6 8 10 5 5 3 4 9 10 2 2 8 9 1 5 5 5 6 7 8 10 10 8 8 8
35 35 35 35 34 34 32 31 29 26 24 23 22 22 21 22 22 20 16 12 9 5 3 4 6 9 6 3 3 7 5 5 9 12 9 1 7 12 15 15 15 17 15 9 9 14 12 7 4 2 3 1 3 4 5 4 3 5 5 7 10 9 9 6 4 5 3 5 3 2 6 9 2 5 10 8 2 4 5 5 7 7 8 8 8 7 6 6
36 36 36 36 35 34 33 31 28 24 22 22 22 22 22 22 19 14 9 7 6 3 2 4 7 9 6 1 5 6 7 9 10 9 6 2 7 9 10 11 12 13 14 9 6 10 14 10 5 3 3 2 2 3 3 4 5 5 3 2 7 8 6 5 4 6 5 5 5 3 4 9 6 10 12 7 3 2 3 6 6 6 7 7 6 6 6 7
37 37 37 37 36 35 33 30 25 22 21 22 23 23 21 18 12 7 7 8 7 4 3 5 7 7 4 3 6 6 8 8 9 9 5 5 8 7 7 7 8 9 10 8 3 4 8 10 5 2 2 3 3 4 5 5 4 5 4 1 3 5 6 7 6 5 5 5 5 7 1 7 11 16 14 6 4 5 6 8 6 6 7 6 6 7 8 8
38 38 38 37 37 35 33 28 23 21 21 22 24 21 17 11 7 10 12 11 8 5 5 6 7 5 2 5 6 5 6 5 5 8 7 8 8 6 6 7 6 7 7 6 4 3 3 4 2 1 3 2 1 3 5 4 4 3 4 4 3 2 7 11 7 2 3 6 5 7 2 7 11 17 14 4 4 6 7 9 6 7 8 7 7 7 8 8
39 39 39 38 38 36 33 26 21 21 21 23 23 16 11 7 9 11 13 12 8 5 5 5 4 3 1 3 3 3 4 3 4 5 4 9 9 6 4 4 3 3 4 4 3 3 2 2 1 1 1 2 2 3 3 5 5 3 3 4 5 3 6 9 7 1 3 4 5 4 2 7 9 15 17 6 2 4 7 10 7 7 8 8 7 7 7 7
40 40 39 39 38 36 31 23 19 22 22 24 21 12 7 6 7 8 11 14 8 4 5 3 2 2 1 3 1 3 4 3 7 7 3 8 11 9 2 3 4 4 3 2 2 2 1 1 0 0 2 3 2 4 4 4 5 4 3 2 4 3 4 6 8 4 3 5 5 1 4 8 11 14 19 10 1 4 8 10 9 6 6 7 7 6 7 8
40 40 39 39 38 35 30 21 18 22 22 24 19 9 6 2 1 3 7 14 7 4 5 3 2 2 1 2 1 2 6 7 10 9 5 7 11 11 3 3 4 5 5 2 0 1 1 1 2 1 3 4 2 4 1 5 4 4 5 4 4 4 4 7 8 5 5 6 6 5 4 10 14 14 16 9 2 6 10 9 8 6 6 7 7 7 8 8
40 40 39 39 37 34 29 19 18 22 23 24 16 6 8 6 3 1 6 13 5 3 1 1 1 1 2 3 3 5 9 10 11 6 3 5 9 9 3 3 4 4 4 2 2 1 1 2 3 1 3 3 2 5 6 8 6 6 5 3 5 6 6 10 11 6 3 6 9 9 8 10 13 16 15 9 4 8 9 8 7 6 6 7 8 8 9 10
41 40 39 38 36 33 27 17 16 20 23 25 17 6 8 9 4 3 8 8 1 2 4 4 2 3 5 5 6 9 10 7 4 1 3 5 10 8 2 2 4 4 2 2 2 2 2 1 3 5 7 8 7 7 7 5 3 3 3 4 5 6 8 12 13 7 3 3 10 10 7 9 12 15 13 8 6 7 7 9 9 8 6 6 8 10 11 13
41 40 39 37 34 32 25 14 14 17 19 26 23 10 4 4 3 4 7 6 6 5 6 6 4 6 9 9 9 8 6 3 3 1 4 7 10 8 0 2 4 3 2 3 2 2 3 0 6 9 9 9 6 6 5 3 2 2 3 5 6 5 9 13 14 10 1 2 8 9 7 10 12 13 10 6 5 4 4 7 8 9 9 6 9 11 12 11
41 40 39 37 32 30 21 13 16 15 15 24 25 12 3 4 3 3 3 5 7 5 5 7 4 6 10 11 11 4 2 2 6 4 7 8 5 5 1 2 4 3 2 3 1 2 3 3 11 12 7 4 5 3 4 3 3 3 2 2 5 5 6 10 12 7 1 3 6 8 7 10 14 11 7 5 5 5 5 6 6 7 10 8 8 10 11 9
41 39 39 35 30 28 17 11 18 17 13 19 20 11 4 10 8 2 1 2 7 5 2 3 2 4 6 5 3 6 4 1 3 5 7 9 1 3 5 4 5 2 1 2 3 2 1 7 10 6 4 4 5 2 5 3 2 4 4 1 5 7 3 5 8 6 1 3 7 8 6 8 11 9 6 7 6 5 5 5 5 6 7 9 9 8 9 10
41 39 38 34 29 26 12 9 20 21 13 12 15 12 11 16 12 2 1 1 4 6 3 3 2 2 3 2 4 7 3 3 3 4 7 10 3 3 4 4 5 1 3 5 6 5 7 10 5 1 3 6 4 3 5 3 3 4 6 5 6 9 6 6 7 8 8 5 4 4 5 5 6 6 6 6 5 5 5 5 7 7 6 8 8 6 9 10
42 40 37 32 27 24 10 6 18 22 11 7 9 16 18 20 15 2 1 2 2 6 3 2 1 1 1 1 3 4 1 2 5 5 7 9 6 4 2 2 4 3 5 4 3 5 9 8 4 3 5 4 3 5 4 6 3 4 5 9 10 10 10 9 6 5 7 6 2 2 5 6 5 5 7 5 6 7 5 5 7 8 7 7 7 6 7 9
41 39 36 29 24 24 10 3 16 20 7 4 10 20 21 22 15 2 2 4 2 4 2 2 1 1 3 1 2 1 2 2 5 5 6 8 6 4 2 1 1 3 4 5 2 3 6 5 1 4 5 1 2 5 5 8 3 3 5 9 11 9 8 8 7 1 1 6 4 3 2 7 5 5 8 4 6 9 7 6 8 7 6 5 6 6 6 7
40 38 35 26 22 23 11 3 15 15 4 7 19 24 24 21 7 5 2 5 2 3 3 3 1 3 6 2 1 2 2 6 3 3 4 8 5 2 2 3 1 2 3 3 1 3 4 5 3 0 2 1 3 5 6 8 6 4 8 7 7 7 7 7 6 4 3 5 5 3 1 5 5 6 7 4 6 9 9 9 9 7 7 6 6 7 7 7
39 37 31 22 19 20 13 8 13 11 8 19 24 26 25 13 2 6 4 4 2 3 0 3 4 4 7 4 3 2 3 6 3 1 3 5 5 1 1 6 4 3 2 4 3 4 3 3 3 2 1 2 4 6 5 7 4 8 9 5 5 6 7 6 5 5 3 2 6 5 0 3 5 5 5 4 3 8 9 9 9 8 9 8 7 7 8 7
38 35 27 20 17 17 15 12 12 15 21 26 27 28 18 1 6 3 5 3 2 3 1 2 5 6 8 6 4 4 3 3 2 4 5 2 2 1 2 6 5 3 2 4 5 7 3 4 4 3 1 4 6 8 5 7 6 7 5 4 4 3 3 2 3 5 1 2 6 7 1 2 5 5 4 3 2 6 8 8 8 8 9 9 8 8 8 7
37 32 23 18 16 17 16 13 16 23 28 29 31 23 5 5 4 5 3 0 2 3 1 3 4 4 7 7 6 6 5 3 3 5 5 2 3 3 1 2 4 3 3 1 4 7 4 2 3 3 3 5 5 7 4 6 7 5 5 5 4 4 3 2 1 1 1 2 7 7 2 3 3 5 4 3 3 5 5 6 7 8 9 9 8 8 8 7
35 28 19 16 16 18 15 12 22 29 29 33 31 13 3 2 4 6 1 2 1 4 4 4 3 4 7 6 4 6 5 5 5 6 6 4 6 6 3 3 3 2 4 4 3 5 7 5 2 3 3 2 1 4 3 1 1 1 2 3 3 5 4 3 4 2 1 5 6 5 1 4 3 5 5 5 6 5 5 6 7 8 10 10 9 9 8 7
34 25 15 14 16 18 16 15 26 30 31 34 23 5 4 3 3 2 2 2 1 3 3 3 5 6 6 4 4 6 4 4 6 5 4 4 5 5 4 4 2 2 4 3 3 5 5 4 5 5 3 1 2 2 5 5 5 4 3 5 4 4 4 3 4 2 2 6 5 2 2 2 4 7 6 7 8 6 5 6 5 7 8 10 10 10 8 7
33 23 12 12 16 20 21 23 28 30 33 31 13 4 6 4 1 2 2 3 1 3 3 3 6 7 5 4 5 7 3 3 5 5 4 3 4 4 4 5 4 1 2 3 2 4 4 5 7 5 2 2 4 2 4 4 4 5 2 3 2 2 3 3 4 3 3 6 4 2 2 3 4 5 6 7 8 7 5 5 5 4 5 8 9 8 8 7
31 22 10 9 15 20 24 26 27 28 32 23 6 4 5 2 2 1 2 3 3 3 3 2 6 7 4 4 3 5 4 3 6 6 5 4 5 4 4 8 9 4 0 1 1 1 2 4 4 2 2 3 2 1 2 3 4 4 2 4 2 2 1 3 3 3 5 6 5 3 1 2 3 4 5 6 8 6 4 3 2 3 5 6 6 7 8 7
30 20 7 9 16 21 25 25 26 27 24 12 6 5 3 1 3 1 2 4 3 4 5 3 4 4 4 4 3 4 4 2 6 6 4 4 4 4 4 6 9 6 3 3 2 1 0 4 5 4 3 0 4 3 2 1 3 4 2 4 2 2 3 2 3 5 3 3 4 2 2 4 3 4 5 4 6 5 3 4 5 6 6 5 6 6 6 6
29 18 6 11 20 23 26 25 25 25 15 5 6 5 2 1 1 1 1 4 3 4 6 5 4 4 4 4 3 5 4 2 5 5 3 2 3 5 5 3 6 6 4 2 2 1 2 4 9 10 3 4 5 5 3 2 2 2 2 1 3 3 5 2 4 2 1 2 4 1 2 5 4 4 5 6 7 7 5 7 6 5 7 7 7 7 6 5
28 15 5 14 25 25 26 25 23 19 8 6 6 2 2 2 1 1 2 4 4 3 3 3 3 2 2 3 3 5 5 3 4 4 3 2 3 6 6 3 5 6 4 2 3 1 1 5 8 7 5 4 6 4 2 2 1 3 1 4 4 1 3 2 2 3 3 3 5 1 2 5 4 4 6 8 8 8 7 7 6 6 8 9 9 9 9 7
23 11 3 13 25 25 25 23 18 11 5 6 4 1 0 1 0 1 4 4 3 2 4 1 2 2 1 1 3 4 4 3 3 3 3 2 2 4 5 3 5 8 7 4 2 1 1 4 6 3 4 8 8 4 3 5 3 4 1 2 1 1 2 1 1 2 2 3 5 3 3 3 3 3 6 8 8 10 10 8 7 9 9 9 9 9 10 10
16 6 1 13 24 25 23 18 12 7 6 5 3 0 1 2 2 4 5 4 2 2 2 1 1 2 1 0 2 3 3 2 1 2 1 1 1 3 6 4 5 10 11 5 2 2 2 2 6 4 1 6 7 4 3 6 5 3 2 3 2 2 3 2 1 2 2 3 4 4 5 4 4 3 4 8 9 10 12 7 5 7 7 6 7 8 8 7
9 3 2 15 24 24 20 13 8 7 5 3 1 1 2 2 4 6 6 4 1 0 2 1 1 2 2 2 1 2 2 1 1 0 1 1 1 3 8 6 5 9 11 6 5 3 3 1 4 5 4 5 4 3 3 5 4 4 4 4 4 2 1 2 2 2 2 3 3 2 4 5 4 3 3 7 7 8 9 5 3 4 5 6 6 6 6 6
5 2 4 17 26 21 15 9 7 5 3 2 1 2 3 2 3 6 6 4 2 1 1 0 1 1 1 2 2 2 3 2 1 0 1 2 2 2 6 6 5 7 6 6 5 3 3 2 4 5 4 2 4 7 6 5 4 3 2 3 3 2 1 3 4 2 1 1 3 2 4 6 5 3 3 3 3 4 6 5 3 4 6 6 6 6 5 5
4 2 6 20 27 18 9 6 2 3 3 1 2 2 3 3 2 4 5 5 3 2 2 1 1 2 1 1 1 2 3 2 2 1 1 2 3 1 4 8 7 5 2 3 4 3 2 1 3 5 4 5 10 11 4 1 2 2 1 1 1 1 1 1 4 4 2 1 2 2 2 6 5 3 3 2 2 2 4 5 4 5 6 7 7 7 6 6
3 3 7 22 26 12 7 5 4 4 1 2 2 2 3 2 2 3 4 5 4 2 3 2 2 3 2 2 2 2 3 2 1 1 1 1 2 2 3 9 9 4 3 3 4 5 4 2 3 6 5 3 7 7 2 3 2 2 2 2 2 3 2 3 4 2 1 3 3 2 4 6 5 3 3 3 2 4 4 4 3 4 5 7 8 8 7 6
1 4 4 18 23 9 6 3 2 3 3 3 3 3 3 1 2 4 3 4 4 2 2 2 2 2 2 2 2 2 3 2 1 2 1 1 1 2 3 10 9 4 3 3 4 4 3 2 3 7 8 5 5 5 5 5 4 2 5 5 4 5 4 2 1 2 1 5 5 4 5 6 4 3 3 2 2 4 2 3 3 2 4 6 7 7 7 7
2 1 4 11 20 13 5 3 3 1 3 4 4 4 4 2 3 3 1 2 4 2 1 1 2 3 2 3 3 3 3 2 1 3 2 2 3 2 3 9 7 2 3 6 7 2 2 1 1 2 5 6 6 5 3 4 4 2 4 6 6 6 5 4 2 0 4 5 4 5 6 6 6 4 3 3 1 2 4 4 4 3 2 5 7 7 5 6
2 2 3 6 10 9 3 1 3 2 1 3 3 3 4 3 4 4 1 2 3 3 2 1 2 3 4 5 4 3 3 2 2 2 2 4 3 2 6 9 5 3 4 9 10 3 2 1 1 4 6 7 7 7 4 2 5 6 6 5 6 8 7 3 2 4 5 5 5 8 8 8 12 10 4 4 5 5 6 5 3 2 1 2 6 7 6 3
2 1 1 3 4 3 3 3 4 2 1 1 0 2 3 3 4 5 3 2 3 3 2 2 4 4 3 4 3 1 3 3 2 2 1 4 3 3 9 8 4 5 6 7 7 4 2 2 3 7 10 10 9 8 6 6 9 12 11 8 7 8 6 4 7 8 3 3 9 11 6 6 14 14 6 6 8 7 7 7 6 6 5 4 5 7 7 6
2 1 1 1 1 1 2 3 3 3 3 0 1 1 3 3 3 3 3 3 4 4 2 2 5 5 2 1 1 0 4 4 3 3 2 3 3 5 7 5 4 5 6 5 5 3 1 4 5 6 11 12 7 5 7 11 12 13 14 11 8 9 10 10 13 10 5 6 12 12 10 11 15 16 9 8 9 10 9 8 7 5 5 6 8 10 10 10
2 1 1 2 0 2 1 2 2 3 2 1 1 2 3 3 3 2 3 3 4 5 3 2 5 5 3 2 2 2 3 2 2 3 3 3 4 4 4 4 4 3 5 5 4 1 1 3 3 3 11 16 9 4 8 13 12 13 14 11 8 10 12 12 12 11 11 13 14 15 18 18 16 15 11 8 10 10 7 6 4 5 7 8 9 11 12 13
1 1 1 2 2 1 1 1 2 2 1 2 1 1 2 2 3 3 3 1 1 4 3 2 5 5 3 4 5 3 1 1 3 5 3 5 5 3 2 2 2 3 5 3 3 2 1 2 2 2 9 16 8 2 6 10 10 13 15 13 12 11 11 11 11 11 11 13 15 16 17 17 15 11 7 6 7 6 5 8 8 7 8 9 9 10 12 14
2 2 2 3 1 2 0 1 2 3 0 1 1 1 1 1 2 3 3 1 2 1 1 1 5 4 2 5 5 1 3 3 6 9 7 6 5 4 3 4 3 5 4 1 1 2 1 3 3 2 6 12 6 3 4 8 9 11 13 13 13 10 8 7 6 6 8 10 13 13 10 11 11 8 5 5 6 6 8 10 10 9 9 9 10 11 12 13
3 2 1 3 0 2 1 0 1 2 2 1 1 1 1 1 3 2 1 1 3 3 1 1 1 2 2 4 4 5 7 7 9 11 9 8 9 8 7 8 8 6 4 2 2 2 3 3 4 2 4 9 7 6 7 8 9 8 6 5 7 6 6 6 4 5 6 6 8 7 5 6 9 10 9 9 9 9 9 8 7 8 8 8 10 11 13 13
Wind_Direction
2 1 359 358 357 355 354 353 352 350 350 348 347 347 346 346 345 344 341 338 334 330 331 331 331 330 328 325 321 318 314 305 298 267 232 268 278 234 216 193 179 188 193 195 195 189 41 35 146 143 124 108 49 76 98 72 104 69 93 164 247 218 223 197 192 204 235 297 295 312 310 197 276 277 230 41 193 226 153 215 260 274 254 242 297 6 82 141
360 359 357 356 354 353 352 351 350 349 348 346 346 344 343 344 343 343 340 338 334 329 330 330 330 329 328 327 322 320 314 310 300 265 253 270 205 178 192 188 168 172 183 194 206 192 148 163 162 112 68 47 341 347 21 205 131 121 133 188 239 212 222 192 198 225 218 275 287 299 286 204 246 268 187 211 237 212 187 260 275 265 263 267 324 94 132 148
359 357 356 355 353 352 351 349 348 347 346 344 343 342 342 342 341 341 338 337 333 329 327 329 330 328 330 329 326 324 315 317 305 268 315 15 183 175 177 184 179 176 187 194 205 191 156 130 139 101 49 360 309 14 353 154 162 186 146 245 247 220 245 212 217 247 230 254 282 290 278 195 246 259 184 216 229 160 206 240 226 234 245 239 181 135 147 157
358 357 355 354 352 351 350 348 347 345 344 342 340 340 340 340 340 338 336 334 330 326 323 326 329 327 331 329 328 325 323 339 298 282 25 30 178 174 175 184 190 199 210 194 161 169 156 116 104 83 66 331 314 20 261 222 194 195 154 226 246 224 279 241 213 244 249 245 250 276 298 296 268 233 222 199 163 257 236 231 214 221 229 215 176 156 161 166
359 357 355 353 352 350 349 347 346 344 342 341 339 338 338 338 338 335 334 331 327 322 317 321 324 327 330 329 330 323 340 38 304 321 35 26 156 176 176 180 190 198 198 179 135 136 142 107 80 59 50 332 326 14 251 219 170 201 205 233 259 261 287 275 231 241 253 237 237 273 292 290 281 216 228 181 179 233 232 225 215 220 224 199 173 168 168 177
359 357 355 353 351 349 348 347 345 343 341 339 338 336 337 337 336 334 331 327 323 317 311 315 318 324 323 325 337 327 5 76 286 307 339 354 152 178 172 176 185 183 179 163 141 134 120 78 66 74 60 350 267 253 256 240 153 262 264 257 272 258 262 278 270 257 262 271 263 256 271 288 292 272 228 189 212 232 227 223 216 223 219 177 160 165 173 185
359 358 356 353 351 349 348 346 344 342 339 337 336 335 335 335 335 332 328 325 320 314 307 307 311 317 316 313 340 9 80 253 284 297 296 317 196 179 174 179 181 177 174 151 135 129 103 88 94 138 102 314 237 223 257 267 191 223 272 274 272 250 236 263 273 278 280 268 256 255 326 288 254 265 225 198 230 238 238 236 221 218 176 149 158 171 183 189
0 358 356 353 351 350 348 346 343 340 338 336 334 334 333 334 334 329 327 324 318 312 300 297 302 303 299 244 24 9 335 256 296 334 303 291 197 183 177 179 184 187 175 163 154 140 117 116 157 152 146 262 210 231 275 344 306 211 247 272 282 265 249 265 276 283 280 261 256 272 282 258 241 236 224 239 243 245 246 240 209 174 144 164 177 182 189 192
0 358 356 354 353 351 350 347 343 340 337 335 334 333 333 332 330 327 326 323 318 307 292 285 285 250 183 141 82 13 274 248 335 354 330 255 206 185 184 184 187 190 172 171 173 157 156 168 198 189 187 229 252 286 356 34 308 220 234 283 296 289 279 287 291 281 277 266 248 250 265 266 256 216 256 252 247 253 245 216 167 147 163 188 190 189 188 191
360 359 357 355 354 353 351 348 344 341 338 336 334 333 332 330 326 324 325 324 318 303 284 264 244 178 171 149 83 54 266 281 359 356 357 230 194 182 190 196 191 187 169 166 178 168 169 189 200 189 168 204 325 304 354 60 250 245 272 286 282 282 283 281 281 279 280 271 222 220 272 285 302 76 265 259 236 156 132 156 157 163 187 200 200 196 187 193
0 359 357 355 355 354 352 349 345 342 339 338 336 334 331 326 323 324 326 326 322 307 271 235 199 162 162 134 112 198 259 284 333 348 354 258 193 188 193 200 199 188 168 161 189 188 174 181 172 105 141 271 320 316 313 280 265 292 300 302 290 290 292 272 264 276 300 298 225 188 271 289 342 174 252 273 245 153 161 171 182 187 203 208 205 199 190 201
1 358 356 355 355 354 352 349 346 344 343 342 340 335 329 324 324 326 329 333 336 327 234 195 164 155 134 86 185 227 257 285 308 328 339 285 191 197 198 205 205 195 185 172 194 199 191 184 126 88 230 254 339 322 302 291 317 308 312 306 300 317 313 296 274 289 347 326 310 128 296 310 317 229 258 288 330 157 171 188 199 202 214 217 209 202 197 199
1 358 356 356 355 355 353 350 347 347 347 346 342 335 328 324 328 333 342 360 13 33 147 159 164 156 122 95 240 255 278 284 294 309 321 226 194 202 210 215 209 208 206 188 178 196 203 209 172 185 217 131 284 280 308 335 346 312 313 287 306 334 312 296 314 324 350 319 330 56 321 312 288 272 282 284 247 189 217 217 207 209 217 220 212 208 208 197
0 358 357 356 355 355 354 350 350 352 352 348 342 334 329 331 342 13 39 45 53 74 122 142 159 149 118 245 261 298 302 291 279 278 277 208 192 201 221 224 211 211 211 201 171 152 191 209 186 177 217 167 238 300 331 350 3 317 328 11 346 342 289 302 317 333 358 316 6 59 301 293 295 294 301 291 224 208 247 246 212 209 217 216 215 213 218 210
360 358 356 355 355 357 355 352 353 357 356 349 342 338 338 352 46 66 57 53 59 85 113 128 150 139 62 283 273 290 300 311 294 280 263 220 197 199 224 221 208 202 206 213 195 147 163 194 158 132 251 245 67 359 323 336 6 347 352 325 338 353 293 310 315 79 35 311 7 54 289 284 297 294 299 302 199 208 248 259 225 210 217 211 216 215 223 226
360 358 356 355 355 357 356 354 358 0 359 351 345 347 360 49 86 63 51 49 55 92 100 112 145 131 85 291 310 327 301 314 342 329 260 230 214 208 217 189 164 168 203 214 194 212 234 187 152 155 235 322 88 76 343 341 339 354 40 297 293 328 313 320 315 155 80 333 348 45 257 282 294 294 300 312 165 222 256 267 251 221 218 212 217 217 220 232
360 357 355 355 355 357 357 357 2 3 2 354 347 355 22 79 82 45 42 37 43 107 85 90 108 61 268 271 320 339 317 325 347 345 280 238 222 214 204 101 102 106 140 179 187 262 274 172 260 338 43 29 103 90 19 324 307 323 11 314 266 280 296 310 306 304 40 1 326 261 198 263 279 288 297 311 22 246 253 263 263 240 228 219 219 223 220 225
359 356 355 355 355 357 358 360 5 6 6 359 352 3 25 36 11 17 22 10 11 116 73 75 77 43 290 297 112 324 316 315 326 322 277 238 213 204 186 79 96 87 63 44 27 349 316 13 49 8 5 10 34 86 101 261 258 278 301 309 293 284 269 276 285 302 344 336 306 295 275 275 286 291 294 317 14 255 255 260 265 251 231 219 217 223 223 223
359 357 355 354 355 357 358 3 10 10 11 9 2 15 27 4 303 267 1 356 7 114 17 263 72 32 273 294 281 312 315 306 312 304 228 206 191 183 146 77 82 78 60 21 329 338 124 29 32 332 310 298 233 164 193 231 230 248 272 270 284 294 283 274 272 276 339 331 301 298 299 288 297 297 294 325 343 270 270 278 275 257 228 212 216 220 218 223
360 358 355 354 356 356 358 7 16 15 17 18 21 39 27 9 351 336 348 347 252 192 282 246 212 286 291 299 300 321 321 302 301 241 171 176 159 142 94 35 42 42 94 159 277 313 95 35 282 244 245 241 229 209 215 245 249 266 288 273 277 285 283 283 280 279 65 11 289 286 296 286 286 286 290 324 324 282 286 292 286 277 257 223 224 225 218 224
359 358 355 355 357 357 1 15 22 21 27 33 40 55 45 23 21 333 332 317 263 237 255 250 232 260 269 275 288 317 343 319 305 319 169 165 143 133 338 15 60 345 269 164 197 343 60 108 250 236 233 243 243 218 221 263 280 263 262 280 289 269 269 280 282 288 63 138 272 291 309 291 281 282 295 327 309 270 269 283 287 290 284 251 230 231 227 229
359 357 355 354 357 358 2 23 25 21 34 43 50 69 95 36 358 277 306 315 288 243 231 262 262 264 268 271 269 252 80 354 319 319 161 149 132 152 181 84 137 236 302 84 77 345 26 250 252 248 230 246 268 222 188 214 229 236 234 283 287 269 275 280 278 289 112 159 272 296 305 289 284 290 298 290 269 252 238 252 270 283 288 275 245 237 235 235
359 357 355 354 358 360 3 29 22 19 41 51 58 73 47 5 353 296 192 289 296 288 235 260 249 265 289 299 227 155 117 186 294 302 179 149 107 166 139 137 169 203 42 137 186 177 257 247 246 243 175 192 263 225 155 201 244 219 214 217 271 278 296 278 285 317 342 226 261 278 294 287 287 305 302 266 266 281 269 272 279 265 271 278 266 247 236 232
360 357 355 354 358 1 8 32 15 16 36 65 64 42 6 354 354 358 170 188 300 298 251 222 220 236 296 354 137 138 117 186 208 285 189 149 112 150 155 161 150 198 228 195 194 204 250 248 223 173 173 181 250 263 157 194 274 232 213 205 241 271 259 236 275 322 326 293 242 270 326 301 290 319 299 280 313 316 305 315 307 288 279 289 291 267 238 230
359 358 356 355 359 3 12 40 13 7 15 87 55 4 350 347 343 324 160 69 324 292 260 220 247 222 274 75 147 176 117 218 219 231 192 160 143 140 180 170 140 226 228 168 192 253 265 251 183 236 258 176 224 272 189 180 246 280 232 211 220 249 256 255 278 342 351 320 281 27 350 296 303 315 274 289 334 312 308 311 286 282 289 299 306 290 255 237
359 358 356 357 1 6 20 53 2 1 15 85 359 340 339 339 334 220 145 49 13 301 337 4 336 354 336 73 176 216 48 301 237 197 188 185 165 126 139 204 138 228 190 140 172 252 267 274 152 241 277 231 228 274 217 174 166 297 241 208 213 232 248 266 274 286 338 292 298 40 311 273 312 304 263 288 323 301 305 297 275 275 285 287 295 296 279 251
359 357 357 360 4 12 30 5 351 6 34 331 333 332 332 333 328 173 120 35 11 302 333 324 324 11 342 317 171 70 11 296 312 113 188 201 196 81 140 216 252 221 167 123 298 243 240 293 345 127 324 317 262 271 226 164 133 243 245 212 204 223 237 243 240 223 238 279 315 8 206 261 294 272 266 307 314 299 303 294 290 296 297 301 302 305 299 265
359 357 357 4 8 14 26 3 355 10 345 328 330 330 330 331 159 151 77 60 307 307 351 300 328 348 337 351 62 63 274 293 11 352 280 193 191 66 197 224 199 196 168 130 233 258 208 261 277 136 95 267 244 250 219 146 153 249 255 246 227 232 244 243 238 248 263 327 308 305 229 251 272 268 296 346 317 290 288 282 289 302 307 316 320 317 312 285
359 357 359 8 9 11 14 7 2 352 339 336 333 331 332 3 141 87 67 113 290 341 162 308 348 334 334 2 23 5 332 7 48 291 333 91 199 59 183 218 170 186 239 152 216 257 237 224 219 139 173 240 244 257 221 159 210 265 289 294 289 280 273 283 264 258 331 34 260 265 224 221 275 286 305 343 301 272 276 276 283 295 306 314 323 330 330 310
359 357 360 9 9 4 2 360 357 348 341 340 336 334 351 129 91 52 48 202 312 330 299 5 4 325 343 360 348 354 12 11 337 318 357 33 326 6 139 194 115 159 273 333 243 260 287 280 193 155 211 219 241 270 242 186 230 291 350 326 323 346 353 23 359 184 79 288 252 258 223 172 274 287 258 245 228 232 259 283 297 309 318 321 328 340 343 333
357 356 359 8 8 4 0 349 349 347 342 341 338 341 100 91 54 85 112 266 310 326 348 10 349 344 4 9 337 344 358 340 345 8 7 350 355 8 12 4 28 42 357 341 296 304 329 327 269 272 265 211 235 289 304 340 294 345 33 24 358 334 351 21 360 37 139 261 260 271 263 153 212 267 254 254 247 228 235 262 295 314 321 325 331 340 343 345
355 355 357 8 11 10 4 342 341 343 341 340 340 5 90 14 23 95 274 310 6 333 345 337 331 343 348 5 357 333 339 344 349 20 9 347 15 25 27 11 330 348 346 296 301 338 319 278 284 305 301 63 65 333 325 354 27 43 57 55 31 336 353 356 320 331 217 251 262 296 317 200 228 251 255 273 281 271 239 233 263 297 313 323 330 336 340 356
353 353 352 8 14 10 1 344 340 341 339 339 345 60 70 67 359 265 302 352 351 317 332 328 330 329 339 33 359 327 351 7 349 5 355 2 40 26 11 10 6 337 276 264 319 340 316 301 318 328 325 37 80 70 328 323 345 356 33 78 63 46 13 309 281 298 275 267 279 343 340 285 284 268 239 255 274 271 257 246 253 285 320 321 324 338 351 8
352 352 347 6 12 5 356 346 342 340 337 341 17 66 45 78 266 299 355 330 291 318 341 336 325 328 18 55 340 337 22 354 352 13 356 8 31 1 348 8 15 33 356 348 333 303 327 304 314 346 315 341 44 137 240 244 292 313 155 131 102 120 151 265 244 254 276 281 294 325 325 240 276 277 244 253 271 270 271 283 318 5 349 329 337 0 10 11
351 352 352 4 3 356 351 344 340 340 339 351 63 63 63 181 282 336 350 309 295 324 322 332 3 13 14 354 325 11 42 324 346 15 6 20 29 351 353 7 9 22 38 12 298 273 21 252 272 299 261 316 14 306 239 200 300 289 137 93 27 178 173 233 231 220 243 290 288 282 247 225 236 277 289 309 304 301 333 3 24 13 347 350 8 12 19 12
350 356 15 7 358 350 346 342 336 339 345 37 69 56 121 209 282 163 315 318 305 308 324 347 32 54 352 324 327 356 12 2 358 4 354 29 44 358 354 360 7 20 39 19 276 333 15 279 300 317 304 87 24 312 302 26 295 292 39 8 271 188 153 198 284 297 26 308 278 256 274 289 328 320 325 355 329 308 342 8 12 352 341 1 11 360 4 7
349 356 20 6 357 347 342 339 335 339 3 82 78 79 195 236 212 181 321 321 289 302 25 14 354 24 348 329 317 328 349 6 7 5 335 353 33 359 347 333 350 10 11 308 263 286 353 276 295 311 294 325 350 323 306 351 86 81 18 268 269 34 96 109 306 326 360 292 281 327 286 299 333 311 323 353 329 311 338 351 346 353 2 7 2 351 349 346
343 345 11 2 354 346 342 340 339 350 49 74 58 71 217 252 223 359 339 324 297 356 58 75 302 16 71 316 297 307 347 355 359 8 334 338 44 8 6 332 324 346 337 309 260 283 341 290 290 284 270 308 340 22 314 316 32 93 186 269 14 12 313 352 301 271 299 286 286 310 306 279 246 268 326 337 318 321 332 335 354 9 11 6 353 348 350 347
345 347 13 352 349 346 345 343 350 27 71 62 41 18 337 284 301 342 340 331 318 26 35 248 277 7 4 108 276 302 354 11 5 15 335 345 57 40 28 346 308 329 330 344 61 305 330 325 288 286 329 320 335 16 334 317 347 21 348 354 32 179 212 239 214 188 193 254 274 306 322 289 236 244 307 305 304 316 312 315 17 18 4 7 355 346 352 355
357 16 330 347 348 344 343 354 23 46 67 72 118 235 327 304 306 325 333 347 348 18 14 309 311 347 324 351 15 322 354 46 11 16 236 329 75 56 21 357 316 321 325 6 48 339 345 21 279 295 341 331 321 328 300 288 303 320 322 327 325 292 260 264 251 153 148 215 242 283 296 272 248 232 256 282 300 309 304 308 61 46 11 11 6 357 354 354
11 44 319 348 351 343 349 24 45 44 80 74 15 290 322 331 317 316 320 348 6 316 30 31 356 5 304 337 5 334 339 346 347 295 226 3 47 45 0 348 319 311 329 12 24 4 2 318 272 299 329 312 258 247 250 261 261 244 243 263 257 251 302 293 285 317 63 163 190 205 272 271 257 221 228 263 309 330 338 347 10 27 19 11 11 14 7 359
40 27 320 352 353 348 20 59 18 34 96 60 344 273 292 328 336 313 318 351 18 12 27 60 50 40 24 327 339 4 4 324 308 331 287 33 65 74 328 335 320 310 21 19 323 301 308 285 280 284 255 237 257 256 240 272 262 190 159 155 158 112 62 263 261 282 342 327 215 174 237 267 258 218 220 212 126 62 32 15 351 2 6 360 5 8 7 10
56 297 319 358 355 351 59 62 337 13 61 281 304 255 254 299 354 336 334 358 12 4 11 27 31 36 47 11 360 25 5 288 246 7 350 55 94 143 349 348 340 352 44 16 321 312 314 350 344 303 276 246 273 282 20 45 52 67 4 5 358 308 277 210 215 215 273 282 279 263 255 267 274 258 243 229 137 91 76 60 21 1 356 354 356 353 355 3
359 259 295 3 7 23 91 74 348 341 315 314 343 329 300 298 25 8 349 350 354 6 30 11 9 32 33 20 40 26 339 330 27 13 27 59 216 183 34 4 355 11 39 18 350 330 313 352 360 329 318 318 328 348 3 356 19 25 316 316 320 306 299 293 339 66 258 245 226 230 250 256 270 299 303 291 79 80 99 127 107 42 5 351 344 341 343 349
343 274 260 359 24 48 96 135 131 202 314 354 357 343 346 343 353 356 351 360 359 24 77 326 2 55 34 21 36 11 360 41 11 346 25 10 294 238 14 2 354 352 30 24 9 338 215 290 326 315 298 290 306 319 309 312 319 298 298 312 321 324 322 316 331 357 263 255 209 217 251 266 274 288 320 319 58 150 238 217 152 121 22 342 333 330 327 339
22 13 297 338 22 48 74 89 85 103 21 22 357 348 15 352 316 323 20 65 13 20 74 341 4 47 40 38 40 351 351 14 351 14 23 335 303 282 336 341 338 324 4 22 15 19 144 4 243 216 247 257 269 275 260 296 292 275 281 288 284 288 293 304 288 244 250 264 252 247 253 271 276 273 265 271 254 223 239 248 213 187 203 312 318 309 293 289
69 21 351 340 345 25 40 20 37 53 21 49 333 328 6 350 318 328 4 44 1 8 55 32 23 46 41 34 45 310 319 335 357 55 359 296 285 302 321 319 305 336 3 17 16 31 64 323 251 235 254 255 255 272 288 296 281 277 281 274 252 256 264 253 249 247 240 267 267 264 255 254 272 274 246 218 240 245 244 243 235 226 212 209 241 259 262 255
48 151 161 54 304 324 22 349 5 10 337 274 158 347 15 12 353 337 333 347 1 16 44 11 9 31 25 352 108 343 337 341 354 10 314 295 313 315 318 304 285 337 13 12 9 34 316 270 236 234 266 269 257 269 285 280 276 277 279 275 260 248 237 231 241 240 214 239 263 275 274 258 265 275 261 213 223 234 233 235 233 228 221 217 220 223 227 230
53 92 287 7 95 201 230 301 350 16 349 355 35 24 53 29 353 306 296 339 360 359 40 36 326 342 2 18 103 88 12 5 329 321 315 326 333 318 312 306 293 344 27 12 347 4 205 252 242 259 288 286 277 244 258 272 281 284 284 284 274 253 237 232 240 239 229 239 252 262 266 263 262 267 260 228 225 229 236 260 265 239 231 226 220 217 221 227
99 139 251 31 31 241 214 350 59 83 7 357 29 29 69 44 345 320 298 351 9 334 27 50 300 313 39 63 78 100 148 181 238 257 281 321 321 303 282 265 260 326 358 1 319 294 221 257 288 327 292 289 294 171 233 265 280 286 293 296 287 275 261 245 239 239 238 245 253 254 259 265 267 268 260 242 246 252 264 274 264 243 236 230 223 221 225 233
110 117 139 102 16 287 213 25 81 109 358 338 153 196 54 38 324 321 303 325 89 36 17 338 290 302 56 60 55 28 268 261 251 250 253 262 256 239 250 250 258 307 323 287 256 287 257 276 316 358 281 283 312 39 300 293 294 287 288 289 286 282 272 254 235 233 236 245 257 259 257 264 277 301 312 284 283 281 262 260 258 251 242 233 231 231 230 234
122 76 73 104 94 288 143 53 57 122 216 239 173 212 181 267 305 344 299 323 75 83 41 39 323 340 38 36 9 311 286 274 260 257 253 247 244 239 243 254 261 269 266 240 235 220 210 254 288 283 265 281 305 347 335 323 315 295 280 296 307 303 298 307 313 286 267 256 262 269 276 299 323 344 345 330 325 314 292 281 279 278 275 264 254 249 247 246